Regional Weather Roundup
Issued by NWS Boston, MA

Current Version | Previous Version | Text Only | Print | Product List | Glossary On
Versions: 1 2 3 4 5 6 7 8 9 10 11 12 13 14 15 16 17 18 19 20 21 22 23 24 25 26 27 28
000 ASUS41 KBOX 181910 RWRBOX REGIONAL WEATHER ROUNDUP NATIONAL WEATHER SERVICE BOSTON/NORTON MA 300 PM EDT MON JUN 18 2018 NOTE: "FAIR" INDICATES FEW OR NO CLOUDS BELOW 12,000 FEET WITH NO SIGNIFICANT WEATHER AND/OR OBSTRUCTIONS TO VISIBILITY. MAZALL-182000- EASTERN MASSACHUSETTS CITY SKY/WX TMP DP RH WIND PRES REMARKS BOSTON CLOUDY 85 69 58 S15 29.79F BEVERLY PTSUNNY 85 70 60 SW18G26 29.78F LAWRENCE FAIR 88 70 55 S12G18 29.79F HX 93 BEDFORD CLOUDY 91 72 53 S16G22 29.78F HX 98 BLUE HILL N/A 80 69 69 S20G26 29.84F NORWOOD FAIR 88 71 57 S14 29.81F HX 94 MARSHFIELD FAIR 81 66 61 SW14G24 29.83F PLYMOUTH FAIR 79 62 56 SW20G28 29.87F TAUNTON FAIR 81 64 56 SW15G29 29.85F NEW BEDFORD FAIR 77 65 66 SW10G28 29.88F $$ MAZALL-182000- CAPE COD AND THE ISLANDS CITY SKY/WX TMP DP RH WIND PRES REMARKS FALMOUTH FAIR 75 66 73 SW23G31 29.90F HYANNIS FAIR 73 67 81 SW24G31 29.88F CHATHAM FAIR 70 64 81 SW9G25 29.92F PROVINCETOWN FAIR 72 64 76 SW21G28 29.86F NANTUCKET FAIR 65 62 90 SW14 29.94F MARTHAS VNYRD FAIR 69 66 90 SW16G28 29.92F $$ MAZALL-182000- CENTRAL AND WESTERN MASSACHUSETTS CITY SKY/WX TMP DP RH WIND PRES REMARKS WORCESTER FAIR 87 69 54 SW17 29.86F HX 91 FITCHBURG FAIR 91 71 51 SW13 29.80F HX 97 ORANGE FAIR 90 70 51 S10 29.81F HX 95 SPRINGFIELD NOT AVBL WESTFIELD FAIR 93 71 48 S17G26 29.80F HX 100 NORTH ADAMS FAIR 90 70 51 W12G21 29.80F HX 95 PITTSFIELD FAIR 88 69 53 SW13G18 29.84F HX 92 $$ RIZALL-182000- RHODE ISLAND CITY SKY/WX TMP DP RH WIND PRES REMARKS PROVIDENCE PTSUNNY 85 66 53 S20G31 29.87F NEWPORT FAIR 72 67 84 S16G25 29.89F BLOCK ISLAND FAIR 71 66 84 SW20G28 29.92F SMITHFIELD FAIR 85 70 60 SW13G22 29.87F WESTERLY FAIR 76 67 73 SW14G22 29.92F $$ CTZALL-182000- CONNECTICUT CITY SKY/WX TMP DP RH WIND PRES REMARKS BRADLEY INTL PTSUNNY 93 69 45 SW17G25 29.82F HX 98 HARTFORD FAIR 89 71 55 S16G25 29.83F HX 95 BRIDGEPORT FAIR 82 67 60 S21 29.88F DANBURY SUNNY 90 72 55 S10G23 29.88F HX 96 GROTON FAIR 75 63 66 SW12 29.90F NEW HAVEN FAIR 81 67 62 S13 29.89F CHESTER FAIR 86 68 54 S10G21 29.91F MERIDEN FAIR 87 69 54 S14G23 29.86F HX 91 WILLIMANTIC FAIR 88 70 55 SW16 29.86F HX 93 OXFORD FAIR 87 71 58 S13G22 29.90F HX 93 $$ MEZ002-015-021-024-NHZ003-005-008-011-012-014-VTZ005-008-182000- NORTHERN NEW ENGLAND CITY SKY/WX TMP DP RH WIND PRES REMARKS PORTLAND ME CLOUDY 91 69 48 SW13G28 29.72F HX 96 BANGOR ME CLOUDY 71 63 75 S8 29.69F CONCORD NH FAIR 90 71 53 S12 29.75F HX 96 MANCHESTER NH PTSUNNY 93 68 43 SW14G20 29.75F HX 97 NASHUA NH FAIR 90 71 53 SW9G16 29.78F HX 96 PORTSMOUTH NH NOT AVBL JAFFREY NH FAIR 88 71 57 S10 29.83F HX 94 KEENE NH FAIR 94 72 48 SW10G20 29.78F HX 102 BURLINGTON VT TSTM 75 69 81 VRB6 29.70 MT. WASHINGTON SHOWER 59 59 100 W52G60 N/A VSB 0 $$ NYZ052-076-182000- EASTERN NEW YORK CITY SKY/WX TMP DP RH WIND PRES REMARKS ALBANY PTSUNNY 95 68 41 W13 29.78F HX 99 NEW YORK CITY PTSUNNY 92 67 43 S15 29.88F HX 95 $$ ANZALL-182000- MARINE OBSERVATIONS STATION/POSITION TIME TEMP WIND PRES VSBY WAVE AIR SEA DIR/SP/G HT/PER (UTC) (F) (DEG/KT/KT) (MB) (MI) (FT/S) BOSTON BUOY 1850 71 62 190/ 16/ 17 1009.0F 2/ 3 BUZZARDS BAY 1800 64 220/ 20/ 22 1014.4F NANTUCKET SOUND 1850 65 64 210/ 19/ 23 1012.8F 2/ 3 MASS BAY-STELLWA 1804 66 61 1007.9F 2/ 5 ISLE OF SHOALS 1900 74 200/ 18/ 19 1007.4F S OF BLOCK IS 1843 61 N/A 3/ 4 $$ ......................KEY......................... SKY/WX - SKY CONDITION/PRESENT WEATHER TMP - TEMPERATURE IN FAHRENHEIT DWPT - DEWPOINT IN FAHRENHEIT RH - RELATIVE HUMIDITY IN PERCENT WIND - DIRECTION AND SPEED IN MPH PRES - MEAN SEA LEVEL PRESSURE IN INCHES OF HG WCI - WIND CHILL INDEX VSB - VISIBILITY IN MILES HX - HEAT INDEX TC - TEMPERATURE IN CELSIUS VRB - VARIABLE WIND DIRECTION N/A - NOT AVAILABLE

USA.gov is the U.S. government's official web portal to all federal, state and local government web resources and services.